Printer-friendly version

IAU Minor Planet Center

Minor Planet Center

MPEC 2004-P41 : 2004 PX27

The following Minor Planet Electronic Circular may be linked-to from your own Web pages, but must not otherwise be redistributed electronically.


Read MPEC 2004-P40 Read MPEC 2004-P42


M.P.E.C. 2004-P41                                Issued 2004 Aug. 11, 14:02 UT

     The Minor Planet Electronic Circulars contain information on unusual
         minor planets and routine data on comets.  They are published
   on behalf of Commission 20 of the International Astronomical Union by the
          Minor Planet Center, Smithsonian Astrophysical Observatory,
                          Cambridge, MA 02138, U.S.A.

                  Supported in part by the Brinson Foundation
             Prepared using the Tamkin Foundation Computer Network

                              MPC@CFA.HARVARD.EDU
          URL http://cfa-www.harvard.edu/iau/mpc.html  ISSN 1523-6714

                                   2004 PX27

Observations:
     K04P27X* C2004 08 10.37836 19 47 49.93 -46 39 48.0          18.1 R EP041E12
     K04P27X  C2004 08 10.38902 19 47 48.23 -46 39 29.9          18.3 R EP041E12
     K04P27X  C2004 08 10.39968 19 47 46.54 -46 39 11.8          18.3 R EP041E12
     K04P27X  C2004 08 10.41036 19 47 44.89 -46 38 53.9          18.5 R EP041E12
     K04P27X  C2004 08 10.70388 19 46 58.74 -46 30 15.8          18.5 R EP041E12
     K04P27X  C2004 08 10.70870 19 46 58.01 -46 30 07.1          18.4 R EP041E12
     K04P27X  C2004 08 10.71352 19 46 57.24 -46 29 57.1          18.4 R EP041E12
     K04P27X  C2004 08 10.71831 19 46 56.50 -46 29 48.5          18.2 R EP041E12
     K04P27X  C2004 08 11.52610 19 44 58.20 -46 05 45.1          18.1 R EP041E12
     K04P27X  C2004 08 11.52893 19 44 57.80 -46 05 39.4          18.8 R EP041E12
     K04P27X  C2004 08 11.53177 19 44 57.35 -46 05 33.7          18.7 R EP041E12
     K04P27X  C2004 08 11.53461 19 44 56.94 -46 05 29.3          18.5 R EP041E12

Observer details:
E12 Siding Spring Survey.  Observers G. J. Garradd, S. Larson, E. Beshore,
    E. Christensen, R. Hill, D. McLean, R. H. McNaught.  0.5-m Uppsala Schmidt
    + CCD.

Orbital elements:
2004 PX27
Epoch 2004 Aug. 3.0 TT = JDT 2453220.5                  MPC
M 335.14844              (2000.0)            P               Q
n   0.27514585     Peri.   45.02650     +0.93558818     -0.29982906
a   2.3411401      Node   330.85193     +0.10008367     +0.73167774
e   0.5067025      Incl.   22.51194     +0.33861191     +0.61216845
P   3.58           H   18.2           G   0.15
From 12 observations 2004 Aug. 10-11.

Ephemeris:
2004 PX27                a,e,i = 2.34, 0.51, 23                  q = 1.1549
Date    TT    R. A. (2000) Decl.     Delta      r     Elong.  Phase     V
2004 08 03    20 07.33   -49 39.3    0.557    1.511   146.5    21.7    18.9
2004 08 13    19 41.44   -45 19.5    0.512    1.449   141.5    25.8    18.7
2004 08 23    19 21.72   -39 02.4    0.483    1.390   133.8    31.7    18.7
2004 09 02    19 10.71   -31 23.4    0.470    1.335   124.9    38.3    18.7
2004 09 12    19 08.05   -23 07.3    0.470    1.285   116.1    44.7    18.8
2004 09 22    19 12.43   -14 50.1    0.481    1.241   108.2    50.2    18.9
2004 10 02    19 22.31   -06 52.3    0.498    1.205   101.7    54.4    19.1
2004 10 12    19 36.51   +00 37.2    0.520    1.178    96.7    57.3    19.2
2004 10 22    19 54.41   +07 36.6    0.545    1.161    93.2    58.9    19.3
2004 11 01    20 15.67   +14 07.5    0.572    1.155    91.1    59.2    19.4
2004 11 11    20 40.37   +20 10.0    0.600    1.160    90.3    58.6    19.5
2004 11 21    21 08.92   +25 44.3    0.631    1.176    90.5    57.1    19.6
2004 12 01    21 41.74   +30 47.8    0.664    1.203    91.4    55.0    19.7
2004 12 11    22 19.18   +35 13.8    0.703    1.238    92.9    52.6    19.8
2004 12 21    23 01.24   +38 54.5    0.749    1.282    94.4    49.9    20.0
2004 12 31    23 47.11   +41 41.3    0.806    1.331    95.7    47.3    20.1
2005 01 10    00 35.22   +43 28.5    0.874    1.386    96.4    44.8    20.3
2005 01 20    01 23.54   +44 17.9    0.956    1.445    96.3    42.6    20.6
2005 01 30    02 10.09   +44 17.2    1.052    1.507    95.4    40.6    20.8
2005 02 09    02 53.55   +43 37.8    1.162    1.571    93.6    38.8    21.1
2005 02 19    03 33.40   +42 32.2    1.285    1.636    91.1    37.2    21.3
2005 03 01    04 09.64   +41 10.1    1.419    1.702    87.9    35.6    21.6
2005 03 11    04 42.62   +39 38.5    1.564    1.768    84.3    34.0    21.8

Timothy B. Spahr             (C) Copyright 2004 MPC           M.P.E.C. 2004-P41

Read MPEC 2004-P40 Read MPEC 2004-P42


Our Web policy. Index to the CBAT/MPC/ICQ pages.


Valid HTML 4.01!